User: anonymous
Location: Unspecified
(0.0000°N, 0.0000°E)
Time: 16:30:49
(UTC+00:00)
Language:

Vanguard 2 - Orbit

View from above orbital plane
View from above orbital plane
View from above satellite
View from above satellite

Ground track
Ground track

The orbit data is extracted from the following two-line orbital elements,

1 00011U 59001A   14274.46677286  .00000843  00000-0  45101-3 0  2803
2 00011 032.8682 322.9277 1472546 001.8501 358.6839 11.84614086369121
Epoch (UTC): 01 October 2014 11:12:09
Eccentricity: 0.1472546
inclination: 32.8682°
perigee height: 553 km
apogee height: 2947 km
right ascension of ascending node: 322.9277°
argument of perigee: 1.8501°
revolutions per day: 11.84614086
mean anomaly at epoch: 358.6839°
orbit number at epoch: 36912

The dashed part of the orbit path shows where the satellite is in the earth's shadow,  

DLR